OELDM LOWS-EDNY

Flight info

Callsign OELDM
Flight time 0h 59m
Altitude 8500
Route KPT
Aircraft DC6/M-SDE1FGHIRWXY/S

Departure

Time 2026-04-23 06:35
Airport Salzburg Airport (LOWS)

Arrival

Time 2026-04-23 07:35
Airport Bodensee Airport Friedrichshafen (EDNY)
Time Latitude Longitude Altitude Speed Heading
2026-04-23 06:16 47.79446 13.00699 1422 ft 0 kts 206°
2026-04-23 06:16 47.79452 13.00704 1422 ft 0 kts 206°
2026-04-23 06:26 47.79449 13.00701 1422 ft 1 kts 206°
2026-04-23 06:27 47.79440 13.00695 1422 ft 2 kts 208°
2026-04-23 06:27 47.79434 13.00689 1422 ft 0 kts 210°
2026-04-23 06:29 47.79433 13.00689 1422 ft 1 kts 211°
2026-04-23 06:29 47.79425 13.00672 1422 ft 4 kts 248°
2026-04-23 06:29 47.79414 13.00605 1422 ft 8 kts 287°
2026-04-23 06:30 47.79464 13.00554 1422 ft 11 kts 319°
2026-04-23 06:30 47.79478 13.00484 1420 ft 11 kts 250°
2026-04-23 06:30 47.79445 13.00367 1423 ft 13 kts 253°
2026-04-23 06:30 47.79516 13.00253 1423 ft 17 kts 339°
2026-04-23 06:31 47.79654 13.00174 1422 ft 25 kts 338°
2026-04-23 06:31 47.79836 13.00064 1420 ft 31 kts 339°
2026-04-23 06:31 47.79979 12.99979 1420 ft 34 kts 338°
2026-04-23 06:31 47.80212 12.99833 1420 ft 38 kts 337°
2026-04-23 06:32 47.80445 12.99685 1420 ft 36 kts 336°
2026-04-23 06:32 47.80540 12.99608 1419 ft 4 kts 268°
2026-04-23 06:32 47.80520 12.99595 1419 ft 6 kts 166°
2026-04-23 06:32 47.80486 12.99658 1419 ft 12 kts 137°
2026-04-23 06:33 47.80420 12.99707 1420 ft 1 kts 157°
2026-04-23 06:34 47.80414 12.99710 1420 ft 8 kts 157°
2026-04-23 06:34 47.80198 12.99845 1421 ft 60 kts 156°
2026-04-23 06:34 47.79670 13.00181 1424 ft 104 kts 157°
2026-04-23 06:34 47.78889 13.00676 1470 ft 135 kts 157°
2026-04-23 06:35 47.77951 13.01273 1536 ft 163 kts 158°
2026-04-23 06:35 47.76875 13.01957 1797 ft 171 kts 156°
2026-04-23 06:35 47.75789 13.02707 2047 ft 171 kts 153°
2026-04-23 06:35 47.75062 13.04027 2298 ft 171 kts 102°
2026-04-23 06:36 47.75368 13.05678 2501 ft 175 kts 47°
2026-04-23 06:36 47.76472 13.06324 2660 ft 177 kts 359°
2026-04-23 06:36 47.77644 13.05791 2790 ft 177 kts 332°
2026-04-23 06:36 47.78748 13.04960 2912 ft 180 kts 331°
2026-04-23 06:37 47.79877 13.04063 2851 ft 186 kts 330°
2026-04-23 06:37 47.80993 13.03165 2966 ft 178 kts 330°
2026-04-23 06:37 47.82049 13.02341 2963 ft 166 kts 332°
2026-04-23 06:37 47.83046 13.01586 2786 ft 158 kts 332°
2026-04-23 06:38 47.84003 13.00821 2514 ft 153 kts 321°
2026-04-23 06:38 47.84316 12.99501 2426 ft 136 kts 254°
2026-04-23 06:38 47.83740 12.98441 2139 ft 136 kts 206°
2026-04-23 06:38 47.82848 12.98210 1897 ft 125 kts 171°
2026-04-23 06:39 47.82080 12.98667 1737 ft 115 kts 155°
2026-04-23 06:39 47.81356 12.99123 1594 ft 110 kts 157°
2026-04-23 06:39 47.80667 12.99553 1461 ft 103 kts 158°
2026-04-23 06:39 47.80057 12.99935 1420 ft 84 kts 157°
2026-04-23 06:40 47.79578 13.00235 1422 ft 70 kts 156°
2026-04-23 06:40 47.79163 13.00498 1420 ft 59 kts 158°
2026-04-23 06:40 47.78841 13.00694 1419 ft 36 kts 157°
2026-04-23 06:40 47.78706 13.00771 1420 ft 11 kts 159°
2026-04-23 06:41 47.78691 13.00802 1420 ft 2 kts 33°
2026-04-23 06:41 47.78752 13.00770 1420 ft 19 kts 334°
2026-04-23 06:41 47.78919 13.00661 1420 ft 32 kts 340°
2026-04-23 06:41 47.79157 13.00512 1419 ft 41 kts 339°
2026-04-23 06:42 47.79444 13.00325 1423 ft 48 kts 335°
2026-04-23 06:42 47.79764 13.00118 1420 ft 50 kts 335°
2026-04-23 06:42 47.80051 12.99937 1420 ft 39 kts 337°
2026-04-23 06:42 47.80282 12.99793 1420 ft 33 kts 336°
2026-04-23 06:43 47.80459 12.99679 1420 ft 16 kts 333°
2026-04-23 06:43 47.80534 12.99580 1419 ft 8 kts 347°
2026-04-23 06:43 47.80551 12.99587 1419 ft 2 kts 59°
2026-04-23 06:43 47.80550 12.99617 1420 ft 5 kts 120°
2026-04-23 06:44 47.80534 12.99634 1419 ft 0 kts 157°
2026-04-23 06:44 47.80479 12.99668 1420 ft 27 kts 157°
2026-04-23 06:44 47.80166 12.99861 1421 ft 69 kts 158°
2026-04-23 06:44 47.79671 13.00174 1422 ft 99 kts 155°
2026-04-23 06:45 47.78970 13.00643 1454 ft 121 kts 158°
2026-04-23 06:45 47.78138 13.01172 1506 ft 140 kts 160°
2026-04-23 06:45 47.77167 13.01758 1615 ft 159 kts 159°
2026-04-23 06:45 47.76152 13.02498 1842 ft 166 kts 144°
2026-04-23 06:46 47.75550 13.03955 2005 ft 173 kts 103°
2026-04-23 06:46 47.75859 13.05654 2150 ft 182 kts 47°
2026-04-23 06:46 47.77040 13.06214 2277 ft 186 kts 352°
2026-04-23 06:46 47.78208 13.05494 2534 ft 184 kts 333°
2026-04-23 06:47 47.79384 13.04643 2756 ft 184 kts 333°
2026-04-23 06:47 47.80497 13.03806 2990 ft 174 kts 332°
2026-04-23 06:47 47.81537 13.03044 2989 ft 163 kts 332°
2026-04-23 06:47 47.82524 13.02291 2773 ft 158 kts 331°
2026-04-23 06:48 47.83491 13.01474 2418 ft 160 kts 327°
2026-04-23 06:48 47.83875 13.00066 2127 ft 149 kts 254°
2026-04-23 06:48 47.83299 12.98962 1928 ft 130 kts 210°
2026-04-23 06:48 47.82480 12.98576 1709 ft 120 kts 183°
2026-04-23 06:49 47.81724 12.98873 1568 ft 108 kts 154°
2026-04-23 06:49 47.81070 12.99305 1484 ft 98 kts 159°
2026-04-23 06:49 47.80463 12.99680 1437 ft 92 kts 158°
2026-04-23 06:49 47.79914 13.00023 1420 ft 77 kts 158°
2026-04-23 06:50 47.79460 13.00314 1424 ft 73 kts 156°
2026-04-23 06:50 47.78895 13.00672 1421 ft 102 kts 156°
2026-04-23 06:50 47.78177 13.01123 1497 ft 123 kts 158°
2026-04-23 06:50 47.77343 13.01668 1703 ft 138 kts 156°
2026-04-23 06:51 47.76614 13.02657 1797 ft 163 kts 99°
2026-04-23 06:51 47.77253 13.03969 2047 ft 181 kts
2026-04-23 06:51 47.78262 13.03003 2001 ft 196 kts 291°
2026-04-23 06:51 47.78822 13.00997 1704 ft 222 kts 298°
2026-04-23 06:52 47.80146 12.99936 1651 ft 229 kts
2026-04-23 06:52 47.81654 12.99899 2115 ft 211 kts 345°
2026-04-23 06:52 47.82778 12.98614 2358 ft 208 kts 299°
2026-04-23 06:52 47.83017 12.96569 2629 ft 199 kts 258°
2026-04-23 06:53 47.82596 12.94692 3015 ft 188 kts 250°
2026-04-23 06:53 47.82149 12.92868 3214 ft 188 kts 250°
2026-04-23 06:53 47.81913 12.90951 3353 ft 192 kts 268°
2026-04-23 06:53 47.81822 12.89008 3751 ft 183 kts 266°
2026-04-23 06:54 47.81766 12.87110 3938 ft 184 kts 269°
2026-04-23 06:54 47.81720 12.85203 4141 ft 184 kts 267°
2026-04-23 06:54 47.81587 12.83293 4336 ft 188 kts 260°
2026-04-23 06:54 47.81343 12.81369 4330 ft 193 kts 261°
2026-04-23 06:55 47.81151 12.79420 4594 ft 186 kts 262°
2026-04-23 06:55 47.81026 12.78144 4810 ft 182 kts 264°
2026-04-23 06:55 47.81050 12.75694 5206 ft 177 kts 272°
2026-04-23 06:55 47.81041 12.73875 5480 ft 175 kts 269°
2026-04-23 06:56 47.81007 12.72055 5719 ft 177 kts 269°
2026-04-23 06:56 47.80975 12.70217 5939 ft 178 kts 269°
2026-04-23 06:56 47.80944 12.68368 6122 ft 181 kts 270°
2026-04-23 06:56 47.80916 12.66499 6311 ft 185 kts 270°
2026-04-23 06:57 47.80873 12.64550 6507 ft 187 kts 269°
2026-04-23 06:57 47.80821 12.60799 6900 ft 191 kts 270°
2026-04-23 06:57 47.80773 12.58814 7073 ft 193 kts 270°
2026-04-23 06:58 47.80742 12.56814 7303 ft 194 kts 270°
2026-04-23 06:58 47.80703 12.54798 7543 ft 196 kts 271°
2026-04-23 06:58 47.80668 12.52752 7734 ft 200 kts 271°
2026-04-23 06:58 47.80629 12.50670 7918 ft 202 kts 271°
2026-04-23 06:59 47.80590 12.48566 8107 ft 205 kts 271°
2026-04-23 06:59 47.80551 12.46441 8278 ft 207 kts 271°
2026-04-23 06:59 47.80507 12.44297 8453 ft 208 kts 271°
2026-04-23 06:59 47.80467 12.42100 8497 ft 216 kts 272°
2026-04-23 07:00 47.80423 12.39825 8513 ft 223 kts 271°
2026-04-23 07:00 47.80380 12.37492 8512 ft 226 kts 272°
2026-04-23 07:00 47.80331 12.35153 8505 ft 227 kts 271°
2026-04-23 07:00 47.80278 12.32807 8501 ft 226 kts 271°
2026-04-23 07:01 47.80229 12.30504 8504 ft 225 kts 271°
2026-04-23 07:01 47.80189 12.28174 8515 ft 226 kts 271°
2026-04-23 07:01 47.80143 12.25820 8496 ft 227 kts 271°
2026-04-23 07:01 47.80093 12.23475 8498 ft 227 kts 271°
2026-04-23 07:02 47.80036 12.21132 8511 ft 226 kts 271°
2026-04-23 07:02 47.79990 12.18797 8500 ft 226 kts 271°
2026-04-23 07:02 47.79942 12.16460 8501 ft 226 kts 271°
2026-04-23 07:02 47.79886 12.14121 8498 ft 226 kts 270°
2026-04-23 07:03 47.79830 12.11785 8501 ft 226 kts 271°
2026-04-23 07:03 47.79786 12.09443 8518 ft 226 kts 271°
2026-04-23 07:03 47.79733 12.07112 8507 ft 225 kts 271°
2026-04-23 07:03 47.79681 12.04782 8504 ft 225 kts 271°
2026-04-23 07:04 47.79628 12.02461 8500 ft 225 kts 271°
2026-04-23 07:04 47.79575 12.00137 8518 ft 226 kts 271°
2026-04-23 07:04 47.79526 11.97798 8511 ft 226 kts 271°
2026-04-23 07:04 47.79462 11.95457 8512 ft 227 kts 270°
2026-04-23 07:05 47.79407 11.93111 8507 ft 227 kts 271°
2026-04-23 07:05 47.79353 11.90768 8508 ft 227 kts 271°
2026-04-23 07:05 47.79301 11.88426 8506 ft 227 kts 271°
2026-04-23 07:05 47.79244 11.86079 8505 ft 227 kts 270°
2026-04-23 07:06 47.79183 11.83733 8519 ft 226 kts 270°
2026-04-23 07:06 47.79125 11.81377 8464 ft 231 kts 270°
2026-04-23 07:06 47.79069 11.78972 8352 ft 234 kts 270°
2026-04-23 07:06 47.79009 11.76541 8232 ft 235 kts 270°
2026-04-23 07:07 47.78943 11.74102 8114 ft 237 kts 270°
2026-04-23 07:07 47.78877 11.71657 7994 ft 237 kts 270°
2026-04-23 07:07 47.78821 11.69202 7885 ft 238 kts 270°
2026-04-23 07:07 47.78759 11.66742 7774 ft 238 kts 269°
2026-04-23 07:08 47.78690 11.64275 7652 ft 239 kts 269°
2026-04-23 07:08 47.78627 11.61838 7574 ft 239 kts 269°
2026-04-23 07:08 47.78561 11.59366 7457 ft 238 kts 269°
2026-04-23 07:08 47.78497 11.56904 7369 ft 238 kts 269°
2026-04-23 07:09 47.78430 11.54450 7243 ft 238 kts 269°
2026-04-23 07:09 47.78362 11.52001 7152 ft 237 kts 269°
2026-04-23 07:09 47.78297 11.49552 7110 ft 237 kts 268°
2026-04-23 07:09 47.78227 11.47093 6934 ft 240 kts 269°
2026-04-23 07:10 47.78155 11.44598 6775 ft 242 kts 269°
2026-04-23 07:10 47.78092 11.42107 6701 ft 239 kts 268°
2026-04-23 07:10 47.78019 11.39660 6637 ft 236 kts 269°
2026-04-23 07:10 47.77955 11.37262 6570 ft 234 kts 269°
2026-04-23 07:11 47.77885 11.34847 6495 ft 233 kts 268°
2026-04-23 07:11 47.77814 11.32456 6499 ft 231 kts 269°
2026-04-23 07:11 47.77745 11.30080 6485 ft 228 kts 269°
2026-04-23 07:12 47.77603 11.25386 6489 ft 226 kts 268°
2026-04-23 07:12 47.77538 11.23049 6486 ft 225 kts 269°
2026-04-23 07:12 47.77471 11.20723 6483 ft 225 kts 268°
2026-04-23 07:12 47.77398 11.18403 6483 ft 225 kts 268°
2026-04-23 07:13 47.77327 11.16076 6497 ft 226 kts 268°
2026-04-23 07:13 47.77259 11.13735 6505 ft 227 kts 269°
2026-04-23 07:13 47.77188 11.11431 6489 ft 228 kts 268°
2026-04-23 07:13 47.77109 11.09082 6494 ft 227 kts 268°
2026-04-23 07:14 47.77036 11.06729 6492 ft 228 kts 268°
2026-04-23 07:14 47.76969 11.04383 6496 ft 227 kts 269°
2026-04-23 07:14 47.76898 11.02040 6492 ft 227 kts 268°
2026-04-23 07:14 47.76815 10.99700 6496 ft 227 kts 268°
2026-04-23 07:15 47.76741 10.97364 6495 ft 226 kts 268°
2026-04-23 07:15 47.76670 10.95031 6494 ft 226 kts 268°
2026-04-23 07:15 47.76594 10.92694 6491 ft 226 kts 268°
2026-04-23 07:15 47.76518 10.90396 6490 ft 225 kts 268°
2026-04-23 07:16 47.76442 10.88065 6495 ft 225 kts 268°
2026-04-23 07:16 47.76365 10.85742 6491 ft 225 kts 268°
2026-04-23 07:16 47.76290 10.83417 6499 ft 225 kts 268°
2026-04-23 07:16 47.76210 10.81089 6500 ft 226 kts 268°
2026-04-23 07:17 47.76132 10.78757 6496 ft 226 kts 268°
2026-04-23 07:17 47.76057 10.76425 6491 ft 226 kts 268°
2026-04-23 07:17 47.75977 10.74100 6488 ft 225 kts 268°
2026-04-23 07:17 47.75899 10.71766 6487 ft 226 kts 268°
2026-04-23 07:18 47.75815 10.69433 6494 ft 226 kts 268°
2026-04-23 07:18 47.75733 10.67103 6488 ft 226 kts 268°
2026-04-23 07:18 47.75654 10.64767 6483 ft 227 kts 268°
2026-04-23 07:18 47.75579 10.62428 6484 ft 227 kts 268°
2026-04-23 07:19 47.75496 10.60085 6483 ft 228 kts 267°
2026-04-23 07:19 47.75400 10.57742 6498 ft 227 kts 268°
2026-04-23 07:19 47.75318 10.55400 6493 ft 227 kts 268°
2026-04-23 07:19 47.75239 10.53058 6503 ft 227 kts 268°
2026-04-23 07:20 47.75155 10.50705 6491 ft 228 kts 268°
2026-04-23 07:20 47.75081 10.48558 6489 ft 228 kts 268°
2026-04-23 07:20 47.74996 10.46203 6481 ft 229 kts 268°
2026-04-23 07:20 47.74907 10.43868 6494 ft 230 kts 268°
2026-04-23 07:21 47.74820 10.41505 6491 ft 229 kts 267°
2026-04-23 07:21 47.74730 10.39144 6501 ft 228 kts 268°
2026-04-23 07:21 47.74648 10.36781 6509 ft 230 kts 267°
2026-04-23 07:21 47.74536 10.34419 6499 ft 228 kts 262°
2026-04-23 07:22 47.74305 10.32090 6505 ft 228 kts 263°
2026-04-23 07:22 47.74124 10.29739 6507 ft 230 kts 264°
2026-04-23 07:22 47.73933 10.27385 6505 ft 230 kts 263°
2026-04-23 07:22 47.73725 10.25028 6506 ft 230 kts 263°
2026-04-23 07:23 47.73522 10.22664 6486 ft 231 kts 263°
2026-04-23 07:23 47.73311 10.20269 6367 ft 237 kts 263°
2026-04-23 07:23 47.73103 10.17822 6230 ft 241 kts 263°
2026-04-23 07:23 47.72891 10.15342 6117 ft 243 kts 263°
2026-04-23 07:24 47.72673 10.12839 5983 ft 245 kts 263°
2026-04-23 07:24 47.72453 10.10328 5855 ft 246 kts 263°
2026-04-23 07:24 47.72233 10.07813 5727 ft 246 kts 263°
2026-04-23 07:24 47.72011 10.05284 5623 ft 247 kts 263°
2026-04-23 07:25 47.71787 10.02758 5496 ft 247 kts 263°
2026-04-23 07:25 47.71567 10.00234 5367 ft 247 kts 263°
2026-04-23 07:25 47.71343 9.97710 5275 ft 246 kts 262°
2026-04-23 07:25 47.71114 9.95197 5245 ft 246 kts 263°
2026-04-23 07:26 47.70905 9.92674 5138 ft 247 kts 263°
2026-04-23 07:26 47.70681 9.90131 5002 ft 248 kts 262°
2026-04-23 07:26 47.70430 9.87598 4870 ft 249 kts 262°
2026-04-23 07:26 47.70286 9.85903 4811 ft 249 kts 263°
2026-04-23 07:27 47.69997 9.82472 4644 ft 251 kts 263°
2026-04-23 07:27 47.69771 9.79942 4527 ft 251 kts 262°
2026-04-23 07:27 47.69520 9.77377 4362 ft 251 kts 262°
2026-04-23 07:27 47.69358 9.75642 4304 ft 251 kts 262°
2026-04-23 07:28 47.69061 9.72256 4117 ft 251 kts 263°
2026-04-23 07:28 47.68845 9.69697 3989 ft 250 kts 263°
2026-04-23 07:28 47.68683 9.67975 3903 ft 249 kts 261°
2026-04-23 07:28 47.68441 9.65427 3785 ft 249 kts 262°
2026-04-23 07:29 47.68216 9.62868 3669 ft 252 kts 263°
2026-04-23 07:29 47.67982 9.60308 3402 ft 256 kts 260°
2026-04-23 07:29 47.67670 9.57648 3029 ft 264 kts 261°
2026-04-23 07:29 47.67359 9.54999 2890 ft 259 kts 261°
2026-04-23 07:30 47.67059 9.52391 2769 ft 254 kts 263°
2026-04-23 07:30 47.67188 9.49811 2626 ft 253 kts 285°
2026-04-23 07:30 47.67731 9.47382 2746 ft 239 kts 291°
2026-04-23 07:30 47.67543 9.45121 2711 ft 234 kts 225°
2026-04-23 07:31 47.66073 9.44983 2428 ft 231 kts 137°
2026-04-23 07:31 47.65748 9.47226 1923 ft 240 kts 78°
2026-04-23 07:31 47.66496 9.49486 1437 ft 247 kts 61°
2026-04-23 07:31 47.67333 9.51657 1412 ft 236 kts 59°
2026-04-23 07:32 47.68370 9.53250 1776 ft 203 kts 14°
2026-04-23 07:32 47.69526 9.52558 2283 ft 181 kts 307°
2026-04-23 07:32 47.69698 9.50791 2430 ft 176 kts 255°
2026-04-23 07:32 47.69142 9.49216 2350 ft 170 kts 237°
2026-04-23 07:33 47.68539 9.47822 2325 ft 152 kts 236°
2026-04-23 07:33 47.67911 9.46614 2131 ft 142 kts 213°
2026-04-23 07:33 47.67005 9.46411 1929 ft 133 kts 164°
2026-04-23 07:33 47.66255 9.47162 1714 ft 126 kts 123°
2026-04-23 07:34 47.66098 9.48292 1527 ft 108 kts 78°
2026-04-23 07:34 47.66391 9.49237 1432 ft 95 kts 60°
2026-04-23 07:34 47.66712 9.50061 1356 ft 89 kts 60°
2026-04-23 07:34 47.66981 9.50757 1354 ft 64 kts 60°
2026-04-23 07:35 47.67130 9.51144 1360 ft 15 kts 61°
2026-04-23 07:35 47.67133 9.51153 1360 ft 3 kts 63°
2026-04-23 07:35 47.67134 9.51231 1360 ft 11 kts 140°
2026-04-23 07:35 47.67048 9.51332 1358 ft 11 kts 141°
2026-04-23 07:36 47.67046 9.51401 1359 ft 9 kts 60°
2026-04-23 07:36 47.67094 9.51530 1362 ft 19 kts 63°
2026-04-23 07:36 47.67170 9.51715 1363 ft 23 kts 58°
2026-04-23 07:36 47.67243 9.51912 1366 ft 20 kts 60°
2026-04-23 07:37 47.67308 9.52077 1367 ft 17 kts 60°
2026-04-23 07:37 47.67363 9.52215 1367 ft 14 kts 59°
2026-04-23 07:37 47.67378 9.52285 1367 ft 3 kts 130°
2026-04-23 07:37 47.67356 9.52293 1368 ft 3 kts 207°
2026-04-23 07:38 47.67331 9.52299 1368 ft 4 kts 108°
2026-04-23 07:38 47.67344 9.52318 1368 ft 2 kts 339°
2026-04-23 07:38 47.67347 9.52316 1368 ft 0 kts 333°